Location: Christchurch
(43.5330°S, 172.6330°E)
Time: 12:56:46
(UTC+13:00)

Cosmos 2228 Rocket - Pass Details

Date: 24 January 2019
Orbit: 617 x 653 km, 82.5° (Epoch: 21 February)

Event Time Altitude Azimuth Distance (km) Brightness Sun altitude
Rises 22:50:28 0° 335° (NNW) 2,889 6.3 -16.0°
Reaches altitude 10° 22:52:47 10° 327° (NNW) 1,991 5.5 -16.3°
Maximum altitude 22:56:57 40° 257° (WSW) 928 4.4 -16.8°
Drops below altitude 10° 23:01:11 10° 186° (S) 2,026 6.5 -17.3°
Sets 23:03:34 0° 178° (S) 2,945 7.3 -17.6°
